[[{"header":{"parameterUnit":"m.s-1","parameterCategory":1,"la1":30.2992,"la2":30.254,"lo1":-89.0895,"lo2":-89.0443,"dy":0.0025,"dx":0.0025,"nx":19,"ny":19,"refTime":"2026-03-26T21:00:00:Z","depth":0,"parameterNumber":2,"parameterNumberName":"U-component_of_WINDS"},"data":[0,0,0,-3.1609,-3.1612,-3.1755,-3.1756,-3.1938,-3.1939,0,0,0,0,0,0,0,0,0,0,0,-3.1567,-3.1568,-3.1609,-3.1612,-3.1755,-3.1756,-3.1938,-3.1939,0,0,0,0,0,0,0,0,0,0,0,-3.1566,-3.1568,-3.1569,-3.1613,-3.1755,-3.1756,-3.1937,-3.1829,0,0,0,0,0,0,0,0,0,0,-3.1691,-3.1652,-3.1567,-3.1569,-3.1614,-3.1755,-3.1756,-3.1824,-3.1836,-3.1873,0,-3.1906,0,-3.1926,-3.1952,-3.1952,0,0,0,-3.1612,-3.1642,-3.168,-3.1569,-3.1615,-3.1754,-3.1691,-3.1831,-3.1844,-3.1889,-3.1909,-3.1915,-3.1929,-3.1953,-3.1954,-3.2167,-3.2167,0,0,-3.1604,-3.1592,-3.1671,-3.1689,-3.1667,-3.1686,-3.1695,-3.1839,-3.186,-3.1909,-3.192,-3.1932,-3.1954,-3.1955,-3.2166,-3.2167,0,0,0,-3.1582,-3.1587,-3.1622,-3.1682,-3.1707,-3.169,-3.1701,-3.1853,-3.1866,-3.1922,-3.1934,-3.1955,-3.1957,-3.2165,-3.2166,-3.2204,0,0,0,-3.1577,-3.1574,-3.1618,-3.1612,-3.1705,-3.1782,-3.1712,-3.1856,-3.1872,-3.1933,-3.1955,-3.1959,-3.2163,-3.2165,-3.2201,-3.2225,0,0,0,-3.1557,-3.1571,-3.1592,-3.1611,-3.1672,-3.178,-3.1801,-3.186,-3.188,-3.1952,-3.196,-3.2163,-3.2165,-3.2198,-3.222,-3.2278,0,0,0,-3.1533,-3.1624,-3.1592,-3.1698,-3.1671,-3.1802,-3.18,-3.1898,-3.1965,-3.1956,-3.2164,-3.2166,-3.2197,-3.2217,-3.2275,-3.2326,-3.2346,0,0,-3.1641,-3.1636,-3.17,-3.1676,-3.181,-3.1782,-3.1921,-3.1993,-3.2011,-3.2114,-3.2119,-3.2202,-3.222,-3.2278,-3.2459,-3.2474,0,0,0,-3.173,-3.1775,-3.1813,-3.1876,-3.1933,-3.1985,-3.2037,-3.2063,-3.2151,-3.2061,-3.2238,-3.2249,-3.2284,-3.2309,-3.2322,-3.2353,-3.2177,-3.2176,-3.2176,-3.1867,-3.1884,-3.199,-3.2025,-3.2086,-3.2138,-3.2189,-3.2234,-3.2234,-3.2275,-3.2307,-3.2414,-3.2443,-3.2453,-3.2485,-3.2334,-3.2334,-3.2334,-3.2334,-3.2028,-3.2095,-3.2092,-3.2194,-3.2212,-3.2298,-3.2352,-3.2348,-3.2431,-3.2392,-3.2424,-3.2381,-3.247,-3.2499,-3.2337,-3.2337,-3.2336,-3.2336,-3.2336,-3.212,-3.2156,-3.2186,-3.2279,-3.2348,-3.238,-3.2459,-3.2472,-3.2485,-3.2516,-3.255,-3.255,-3.2552,-3.2531,-3.2531,-3.2532,-3.2532,-3.2532,-3.2532,-3.2205,-3.2238,-3.2304,-3.2372,-3.2414,-3.2471,-3.2523,-3.2565,-3.2615,-3.2618,-3.2618,-3.2614,-3.2475,-3.244,-3.2538,-3.2537,-3.2537,-3.2536,-3.2536,-3.2365,-3.2331,-3.2432,-3.2474,-3.2555,-3.2623,-3.2637,-3.2721,-3.2757,-3.2796,-3.2785,-3.2679,-3.2676,-3.2665,-3.2637,-3.278,-3.278,-3.278,-3.278,-3.2444,-3.2443,-3.255,-3.2616,-3.2682,-3.2706,-3.282,-3.2862,-3.2899,-3.2923,-3.2903,-3.2866,-3.2855,-3.2858,-3.2843,-3.2817,-3.3003,-3.3004,-3.3004,-3.2544,-3.2549,-3.2645,-3.2681,-3.2744,-3.2799,-3.2907,-3.2983,-3.3018,-3.3013,-3.2942,-3.2932,-3.2872,-3.2852,-3.2847,-3.2824,-3.2776,0,0]},{"header":{"parameterUnit":"m.s-1","parameterCategory":1,"la1":30.2992,"la2":30.254,"lo1":-89.0895,"lo2":-89.0443,"dy":0.0025,"dx":0.0025,"nx":19,"ny":19,"refTime":"2026-03-26T21:00:00:Z","depth":0,"parameterNumber":3,"parameterNumberName":"V-component_of_WINDS"},"data":[0,0,0,-5.5665,-5.5665,-5.5701,-5.5701,-5.5754,-5.5755,0,0,0,0,0,0,0,0,0,0,0,-5.566,-5.566,-5.5664,-5.5666,-5.5701,-5.5701,-5.5754,-5.5755,0,0,0,0,0,0,0,0,0,0,0,-5.566,-5.566,-5.5661,-5.5666,-5.5701,-5.5701,-5.5754,-5.5724,0,0,0,0,0,0,0,0,0,0,-5.5688,-5.569,-5.566,-5.5661,-5.5666,-5.5701,-5.5701,-5.5723,-5.5726,-5.5742,0,-5.5759,0,-5.5758,-5.5759,-5.5759,0,0,0,-5.5661,-5.5687,-5.5692,-5.5661,-5.5666,-5.5701,-5.5684,-5.5725,-5.5728,-5.5747,-5.5759,-5.5761,-5.5759,-5.576,-5.576,-5.5871,-5.5872,0,0,-5.5659,-5.5669,-5.5689,-5.5694,-5.5691,-5.5683,-5.5685,-5.5727,-5.5741,-5.576,-5.5762,-5.576,-5.576,-5.576,-5.5871,-5.5871,0,0,0,-5.5656,-5.5668,-5.5671,-5.5693,-5.5698,-5.5684,-5.5686,-5.5739,-5.5739,-5.5763,-5.576,-5.576,-5.5761,-5.587,-5.5871,-5.5919,0,0,0,-5.5655,-5.5666,-5.567,-5.5677,-5.5698,-5.5719,-5.5698,-5.5736,-5.5741,-5.576,-5.576,-5.5762,-5.5869,-5.587,-5.5916,-5.5939,0,0,0,-5.5655,-5.5666,-5.5674,-5.5677,-5.5693,-5.5718,-5.5721,-5.5737,-5.574,-5.5759,-5.5762,-5.5868,-5.587,-5.5913,-5.5935,-5.5973,0,0,0,-5.5658,-5.5714,-5.5674,-5.5735,-5.5693,-5.5748,-5.572,-5.576,-5.5783,-5.5761,-5.5869,-5.5871,-5.5912,-5.5932,-5.597,-5.6007,-5.6023,0,0,-5.5734,-5.5723,-5.5758,-5.5724,-5.5789,-5.5742,-5.5813,-5.5823,-5.5815,-5.5853,-5.5855,-5.5917,-5.5934,-5.5972,-5.611,-5.6123,0,0,0,-5.5785,-5.5811,-5.5826,-5.5849,-5.586,-5.5871,-5.587,-5.5874,-5.5906,-5.5837,-5.594,-5.595,-5.5972,-5.5989,-5.6,-5.6019,-5.5879,-5.5879,-5.5879,-5.5906,-5.5894,-5.5952,-5.5946,-5.5968,-5.5968,-5.5985,-5.599,-5.597,-5.5995,-5.6006,-5.6091,-5.6112,-5.612,-5.614,-5.6024,-5.6024,-5.6024,-5.6024,-5.6015,-5.605,-5.6025,-5.6072,-5.606,-5.6098,-5.61,-5.6085,-5.6119,-5.6081,-5.61,-5.606,-5.6135,-5.6151,-5.6028,-5.6027,-5.6027,-5.6027,-5.6026,-5.6094,-5.6108,-5.6114,-5.6148,-5.6175,-5.6166,-5.6201,-5.6187,-5.6174,-5.6193,-5.6204,-5.6203,-5.6202,-5.6199,-5.62,-5.62,-5.62,-5.62,-5.62,-5.6173,-5.6177,-5.6209,-5.6227,-5.6242,-5.6258,-5.626,-5.6273,-5.6284,-5.6271,-5.6271,-5.6249,-5.6145,-5.6119,-5.6205,-5.6204,-5.6204,-5.6203,-5.6203,-5.6289,-5.6261,-5.6311,-5.6326,-5.6346,-5.6375,-5.6358,-5.6387,-5.6395,-5.6413,-5.6388,-5.6312,-5.63,-5.6291,-5.627,-5.639,-5.639,-5.639,-5.639,-5.6356,-5.6349,-5.6398,-5.6422,-5.6445,-5.6435,-5.6491,-5.6493,-5.649,-5.6495,-5.6476,-5.6446,-5.6438,-5.643,-5.6418,-5.6398,-5.6548,-5.6548,-5.6549,-5.6428,-5.6423,-5.6474,-5.6473,-5.6488,-5.6502,-5.6555,-5.6583,-5.6574,-5.6555,-5.6499,-5.6492,-5.6444,-5.6429,-5.6409,-5.6391,-5.6354,0,0]}]]